Location: Antichan
(42.9728°N, 0.6667°E)
Time: 18:54:47
(UTC+00:00)

Cosmos 921 Rocket - Pass Details

Date: 15 August 2020
Orbit: 572 x 631 km, 75.8° (Epoch: 20 September)

Event Time Altitude Azimuth Distance (km) Brightness Sun altitude
Rises 19:35:39 0° 353° (N) 2,801 6.9 -7.0°
Reaches altitude 10° 19:38:09 10° 5° (N) 1,892 5.8 -7.4°
Maximum altitude 19:41:44 27° 64° (ENE) 1,127 4.1 -8.0°
Enters shadow 19:45:05 11° 121° (ESE) 1,806 4.8 -8.5°
